EW8360 Weather Reports


Display with metric or nautical units.
time (UTC)temp
F
wind
direction
speed
MPH
gust
MPH
rain 1hr
in
rain 24hr
in
rain mn
in
humidity
%
barometer
mb
20260903165015 72 354 5.0 6.0 0.00 0.00 0.00 68 1013.1
20260903164735 72 4 2.0 5.0 0.00 0.00 0.00 69 1013.1
20260903164014 71 290 1.0 5.0 0.00 0.00 0.00 71 1013.1
20260903163515 71 29 3.0 5.0 0.00 0.00 0.00 69 1013.2
20260903163013 71 300 1.0 5.0 0.00 0.00 0.00 72 1013.2
20260903162514 71 294 1.0 3.0 0.00 0.00 0.00 71 1013.3
20260903162013 71 293 2.0 3.0 0.00 0.00 0.00 73 1013.3
20260903161514 71 289 2.0 3.0 0.00 0.00 0.00 73 1013.4
20260903161230 70 285 1.0 2.0 0.00 0.00 0.00 72 1013.5
20260903160732 70 286 0.0 2.0 0.00 0.00 0.00 72 1013.4
20260903160013 69 290 1.0 2.0 0.00 0.00 0.00 73 1013.4
20260903155736 68 295 1.0 3.0 0.00 0.00 0.00 73 1013.3
20260903155233 68 17 0.0 3.0 0.00 0.00 0.00 75 1013.4
20260903154737 67 300 0.0 3.0 0.00 0.00 0.00 75 1013.4
20260903154013 66 335 1.0 3.0 0.00 0.00 0.00 76 1013.4
20260903153514 66 343 1.0 3.0 0.00 0.00 0.00 77 1013.4
20260903153238 66 0 2.0 3.0 0.00 0.00 0.00 77 1013.4
20260903152513 65 347 1.0 5.0 0.00 0.00 0.00 78 1013.4
20260903152012 65 18 2.0 5.0 0.00 0.00 0.00 79 1013.4
20260903151735 65 32 2.0 5.0 0.00 0.00 0.00 79 1013.3
20260903151014 66 17 2.0 3.0 0.00 0.00 0.00 79 1013.4
20260903150731 66 332 1.0 5.0 0.00 0.00 0.00 80 1013.4
20260903150011 66 282 1.0 5.0 0.00 0.00 0.00 81 1013.4
20260903145513 66 7 2.0 3.0 0.00 0.00 0.00 80 1013.4
20260903145013 66 308 1.0 2.0 0.00 0.00 0.00 77 1013.3
20260903144512 65 266 0.0 2.0 0.00 0.00 0.00 78 1013.4
20260903144011 64 223 1.0 5.0 0.00 0.00 0.00 79 1013.3
20260903143512 64 255 0.0 5.0 0.00 0.00 0.00 80 1013.3
20260903143012 63 155 3.0 3.0 0.00 0.00 0.00 81 1013.2
20260903142511 63 221 2.0 3.0 0.00 0.00 0.00 82 1013.2
20260903142238 62 225 0.0 3.0 0.00 0.00 0.00 83 1013.3
20260903141736 62 318 2.0 3.0 0.00 0.00 0.00 85 1013.2
20260903141011 62 276 0.0 1.0 0.00 0.00 0.00 86 1013.1
20260903140510 62 277 0.0 0.0 0.00 0.00 0.00 86 1013.1
20260903140010 61 259 0.0 2.0 0.00 0.00 0.00 87 1013.1
20260903135511 61 261 0.0 3.0 0.00 0.00 0.00 87 1012.9
20260903135011 61 221 1.0 3.0 0.00 0.00 0.00 87 1012.9
20260903134510 61 178 2.0 3.0 0.00 0.00 0.00 88 1012.8
20260903134010 61 232 0.0 5.0 0.00 0.00 0.00 89 1012.8
20260903133510 61 278 0.0 5.0 0.00 0.00 0.00 89 1012.7
20260903133010 61 351 2.0 5.0 0.00 0.00 0.00 90 1012.7
20260903132510 61 289 0.0 0.0 0.00 0.00 0.00 90 1012.6
20260903132009 61 263 0.0 0.0 0.00 0.00 0.00 90 1012.6
20260903131509 61 258 0.0 2.0 0.00 0.00 0.00 90 1012.6
20260903131011 61 302 0.0 2.0 0.00 0.00 0.00 90 1012.6
20260903130510 61 260 0.0 0.0 0.00 0.00 0.00 90 1012.7
20260903130230 61 270 0.0 0.0 0.00 0.00 0.00 89 1012.6
20260903125729 61 235 0.0 0.0 0.00 0.00 0.00 90 1012.6
20260903125229 61 267 0.0 0.0 0.00 0.00 0.00 90 1012.6
20260903124510 61 254 0.0 0.0 0.00 0.00 0.00 89 1012.7
20260903124229 61 261 0.0 2.0 0.00 0.00 0.00 90 1012.7
20260903123508 61 258 0.0 2.0 0.00 0.00 0.00 90 1012.7
20260903123010 61 336 0.0 0.0 0.00 0.00 0.00 91 1012.7
20260903122509 61 268 0.0 1.0 0.00 0.00 0.00 90 1012.7
20260903122228 61 257 0.0 5.0 0.00 0.00 0.00 91 1012.6
20260903121730 62 277 0.0 5.0 0.00 0.00 0.00 91 1012.6
20260903121009 62 301 0.0 0.0 0.00 0.00 0.00 91 1012.5
20260903120509 62 257 0.0 0.0 0.00 0.00 0.00 91 1012.6
20260903120009 62 253 0.0 2.0 0.00 0.00 0.00 90 1012.6
20260903115508 62 185 0.0 3.0 0.00 0.00 0.00 91 1012.5
20260903115009 62 289 1.0 3.0 0.00 0.00 0.00 91 1012.5
20260903114509 62 284 0.0 3.0 0.00 0.00 0.00 91 1012.6
20260903114008 62 281 0.0 5.0 0.00 0.00 0.00 91 1012.6
20260903113508 62 315 2.0 5.0 0.00 0.00 0.00 91 1012.6
20260903113009 62 271 0.0 1.0 0.00 0.00 0.00 91 1012.6
20260903112509 62 260 0.0 6.0 0.00 0.00 0.00 90 1012.6
20260903112008 62 239 1.0 6.0 0.00 0.00 0.00 91 1012.6
20260903111507 63 334 3.0 3.0 0.00 0.00 0.00 90 1012.6
20260903111008 63 288 0.0 3.0 0.00 0.00 0.00 90 1012.6
20260903110509 63 243 0.0 0.0 0.00 0.00 0.00 90 1012.7
20260903110007 63 251 0.0 3.0 0.00 0.00 0.00 90 1012.7
20260903105507 63 299 0.0 3.0 0.00 0.00 0.00 89 1012.8
20260903105008 63 262 0.0 2.0 0.00 0.00 0.00 89 1012.8
20260903104508 63 279 0.0 3.0 0.00 0.00 0.00 89 1012.7
20260903104006 63 283 0.0 5.0 0.00 0.00 0.00 89 1012.8
20260903103507 63 305 1.0 5.0 0.00 0.00 0.00 89 1012.7
20260903103007 63 284 0.0 3.0 0.00 0.00 0.00 89 1012.7
20260903102507 63 299 2.0 5.0 0.00 0.00 0.00 88 1012.7
20260903102007 63 343 2.0 5.0 0.00 0.00 0.00 88 1012.8
20260903101506 63 14 1.0 2.0 0.00 0.00 0.00 88 1012.9
20260903101230 63 328 0.0 2.0 0.00 0.00 0.00 88 1012.8
20260903100505 63 315 0.0 0.0 0.00 0.00 0.00 88 1012.8
20260903095935 64 309 0.0 3.0 0.00 0.00 0.00 88 1012.9
20260903095657 64 342 0.0 3.0 0.00 0.00 0.00 88 1012.9
20260903094934 64 34 1.0 3.0 0.00 0.00 0.00 88 1012.9
20260903094434 64 3 2.0 5.0 0.00 0.00 0.00 88 1013.0
20260903093934 64 6 2.0 5.0 0.00 0.00 0.00 88 1012.9
20260903093434 64 357 3.0 5.0 0.00 0.00 0.00 88 1013.1
20260903092933 64 351 4.0 5.0 0.00 0.00 0.00 88 1013.1
20260903092435 64 286 1.0 2.0 0.00 0.00 0.00 88 1013.1
20260903091934 63 342 2.0 2.0 0.00 0.00 0.00 88 1013.1
20260903091433 63 317 0.0 0.0 0.00 0.00 0.00 88 1013.3
20260903090933 64 300 0.0 0.0 0.00 0.00 0.00 88 1013.3
20260903090433 64 265 0.0 0.0 0.00 0.00 0.00 89 1013.3
20260903085934 64 276 0.0 3.0 0.00 0.00 0.00 89 1013.3
20260903085659 64 275 0.0 3.0 0.00 0.00 0.00 88 1013.3
20260903084932 64 336 1.0 3.0 0.00 0.00 0.00 88 1013.4
20260903084434 64 250 0.0 0.0 0.00 0.00 0.00 88 1013.4
20260903083934 64 250 0.0 1.0 0.00 0.00 0.00 88 1013.5
20260903083432 65 249 0.0 3.0 0.00 0.00 0.00 87 1013.5
20260903082932 65 277 1.0 3.0 0.00 0.00 0.00 87 1013.5
20260903082433 65 307 2.0 3.0 0.00 0.00 0.00 87 1013.5
20260903081933 65 356 1.0 3.0 0.00 0.00 0.00 86 1013.6
20260903081432 65 276 0.0 0.0 0.00 0.00 0.00 85 1013.7
20260903081150 65 215 0.0 0.0 0.00 0.00 0.00 85 1013.6
20260903080433 65 236 0.0 0.0 0.00 0.00 0.00 86 1013.7
20260903080200 65 223 0.0 0.0 0.00 0.00 0.00 86 1013.7
20260903075431 65 256 0.0 0.0 0.00 0.00 0.00 86 1013.7
20260903074931 65 238 0.0 1.0 0.00 0.00 0.00 87 1013.6
20260903074432 65 262 0.0 5.0 0.00 0.00 0.00 86 1013.7
20260903073933 66 257 0.0 5.0 0.00 0.00 0.00 86 1013.8
20260903073431 66 347 3.0 5.0 0.00 0.00 0.00 86 1013.8
20260903072931 66 301 2.0 3.0 0.00 0.00 0.00 85 1013.8
20260903072431 66 323 0.0 2.0 0.00 0.00 0.00 85 1013.7
20260903071931 66 340 1.0 2.0 0.00 0.00 0.00 85 1013.6
20260903071430 66 263 0.0 0.0 0.00 0.00 0.00 85 1013.7
20260903070931 66 220 0.0 0.0 0.00 0.00 0.00 85 1013.6
20260903070648 66 291 0.0 0.0 0.00 0.00 0.00 85 1013.7
20260903070151 66 286 0.0 0.0 0.00 0.00 0.00 85 1013.7
20260903065430 66 291 0.0 0.0 0.00 0.00 0.00 84 1013.7
20260903065151 67 277 0.0 0.0 0.00 0.00 0.00 84 1013.8
20260903064430 67 274 0.0 0.0 0.00 0.00 0.00 84 1013.8
20260903063932 67 247 0.0 0.0 0.00 0.00 0.00 84 1013.7
20260903063430 67 250 0.0 0.0 0.00 0.00 0.00 84 1013.8
20260903062930 67 269 0.0 0.0 0.00 0.00 0.00 83 1013.7
20260903062658 67 259 0.0 1.0 0.00 0.00 0.00 83 1013.7
20260903061930 67 306 0.0 2.0 0.00 0.00 0.00 83 1013.7
20260903061430 67 296 1.0 2.0 0.00 0.00 0.00 83 1013.7
20260903061152 67 341 0.0 2.0 0.00 0.00 0.00 83 1013.8
20260903060430 67 301 0.0 2.0 0.00 0.00 0.00 83 1013.7
20260903055930 67 293 1.0 3.0 0.00 0.00 0.00 83 1013.8
20260903055430 67 270 2.0 3.0 0.00 0.00 0.00 83 1013.8
20260903054646 67 294 2.0 2.0 0.00 0.00 0.00 83 1013.9
20260903053930 67 290 0.0 2.0 0.00 0.00 0.00 83 1013.9
20260903053656 67 268 1.0 3.0 0.00 0.00 0.00 83 1014.0
20260903052928 67 295 3.0 3.0 0.00 0.00 0.00 83 1014.0
20260903052645 67 278 2.0 3.0 0.00 0.00 0.00 83 1013.9
20260903051929 67 268 1.0 3.0 0.00 0.00 0.00 83 1014.0
20260903051429 67 275 1.0 2.0 0.00 0.00 0.00 83 1013.9
20260903050927 67 270 1.0 2.0 0.00 0.00 0.00 83 1014.0
20260903050427 67 273 2.0 2.0 0.00 0.00 0.00 84 1014.1
20260903050156 67 252 0.0 2.0 0.00 0.00 0.00 84 1014.0
20260903045429 67 265 0.0 2.0 0.00 0.00 0.00 83 1014.1
20260903044928 67 245 2.0 2.0 0.00 0.00 0.00 83 1014.0
20260903044653 68 250 0.0 2.0 0.00 0.00 0.00 83 1014.0
20260903044148 68 245 1.0 2.0 0.00 0.00 0.00 83 1014.0
20260903043428 68 243 1.0 2.0 0.00 0.00 0.00 82 1013.9
20260903042927 68 260 0.0 2.0 0.00 0.00 0.00 82 1013.9
20260903042427 68 269 0.0 5.0 0.00 0.00 0.00 82 1013.9
20260903041928 68 264 0.0 5.0 0.00 0.00 0.00 82 1013.9
20260903041648 68 302 3.0 5.0 0.00 0.00 0.00 82 1013.9
20260903040927 68 267 0.0 6.0 0.00 0.00 0.00 82 1013.9
20260903040427 68 321 4.0 6.0 0.00 0.00 0.00 82 1013.8
20260903035928 68 284 2.0 5.0 0.00 0.00 0.00 82 1013.7
20260903035653 68 299 4.0 7.0 0.00 0.00 0.00 82 1013.7
20260903034926 68 284 4.0 8.0 0.00 0.00 0.00 82 1013.6
20260903034647 68 294 5.0 8.0 0.00 0.00 0.00 82 1013.6
20260903033925 67 298 5.0 9.0 0.00 0.00 0.00 82 1013.5
20260903033428 67 16 3.0 9.0 0.00 0.00 0.00 82 1013.5
20260903032929 67 344 6.0 8.0 0.00 0.00 0.00 82 1013.4
20260903032425 67 324 5.0 8.0 0.00 0.00 0.00 82 1013.4
20260903031925 68 312 5.0 8.0 0.00 0.00 0.00 82 1013.5
20260903031427 68 293 4.0 8.0 0.00 0.00 0.00 83 1013.3
20260903030926 68 321 4.0 8.0 0.00 0.00 0.00 82 1013.2
20260903030425 68 331 4.0 8.0 0.00 0.00 0.00 83 1013.3
20260903025926 68 275 5.0 8.0 0.00 0.00 0.00 83 1013.2
20260903025652 68 301 3.0 9.0 0.00 0.00 0.00 83 1013.2
20260903024926 68 299 5.0 9.0 0.00 0.00 0.00 82 1013.2
20260903024424 68 348 5.0 9.0 0.00 0.00 0.00 82 1013.1
20260903023925 68 337 6.0 13.0 0.00 0.00 0.00 83 1013.0
20260903023426 68 324 7.0 13.0 0.00 0.00 0.00 82 1013.0
20260903022425 68 286 4.0 9.0 0.00 0.00 0.00 83 1013.0
20260903021924 69 315 4.0 7.0 0.00 0.00 0.00 83 1013.1
20260903021427 69 278 6.0 8.0 0.00 0.00 0.00 83 1013.1
20260903020925 69 298 3.0 8.0 0.00 0.00 0.00 83 1013.2
20260903020423 69 289 3.0 8.0 0.00 0.00 0.00 82 1013.1
20260903015924 69 267 3.0 8.0 0.00 0.00 0.00 82 1013.1
20260903015424 70 270 4.0 8.0 0.00 0.00 0.00 81 1013.1
20260903014925 70 328 3.0 8.0 0.00 0.00 0.00 80 1013.1
20260903014424 70 271 3.0 8.0 0.00 0.00 0.00 79 1013.0
20260903014141 70 305 2.0 8.0 0.00 0.00 0.00 78 1013.0
20260903013423 71 257 2.0 8.0 0.00 0.00 0.00 77 1013.0
20260903012924 71 321 2.0 9.0 0.00 0.00 0.00 77 1012.9
20260903012423 71 6 4.0 10.0 0.00 0.00 0.00 76 1013.0
20260903011923 71 264 3.0 10.0 0.00 0.00 0.00 76 1012.9
20260903011422 72 291 1.0 7.0 0.00 0.00 0.00 74 1012.8
20260903010924 72 349 5.0 7.0 0.00 0.00 0.00 73 1012.9
20260903010648 72 330 3.0 8.0 0.00 0.00 0.00 72 1012.8
20260903005922 72 329 4.0 8.0 0.00 0.00 0.00 72 1012.9
20260903005422 72 279 2.0 9.0 0.00 0.00 0.00 72 1012.9
20260903004923 72 294 3.0 9.0 0.00 0.00 0.00 72 1012.7
20260903004423 72 330 3.0 9.0 0.00 0.00 0.00 71 1012.8
20260903003922 73 264 2.0 8.0 0.00 0.00 0.00 71 1012.9
20260903003422 73 286 6.0 9.0 0.00 0.00 0.00 71 1012.9
20260903002923 73 318 7.0 9.0 0.00 0.00 0.00 72 1012.8
20260903002423 73 304 4.0 8.0 0.00 0.00 0.00 70 1012.9
20260903001922 73 284 5.0 8.0 0.00 0.00 0.00 69 1012.9
20260903001646 73 224 5.0 9.0 0.00 0.00 0.00 69 1012.9
20260903001148 73 310 3.0 9.0 0.00 0.00 0.00 70 1012.9
20260903000424 73 320 4.0 8.0 0.00 0.00 0.00 69 1013.0
20260902235921 73 262 4.0 8.0 0.00 0.00 0.00 67 1012.9
20260902235422 73 331 5.0 10.0 0.00 0.00 0.00 67 1013.0
20260902234922 73 284 1.0 12.0 0.00 0.00 0.00 69 1013.0
20260902234423 73 269 2.0 12.0 0.00 0.00 0.00 70 1013.0
20260902233920 73 345 3.0 10.0 0.00 0.00 0.00 69 1013.1
20260902233421 73 297 5.0 10.0 0.00 0.00 0.00 69 1013.1
20260902232921 73 350 5.0 9.0 0.00 0.00 0.00 68 1013.2
20260902232422 73 344 6.0 9.0 0.00 0.00 0.00 69 1013.1
20260902231920 73 283 5.0 9.0 0.00 0.00 0.00 68 1013.2
20260902231420 73 287 5.0 9.0 0.00 0.00 0.00 67 1013.3
20260902231144 72 344 5.0 8.0 0.00 0.00 0.00 68 1013.3
20260902230641 72 303 3.0 13.0 0.00 0.00 0.00 67 1013.3
20260902225920 72 280 2.0 13.0 0.00 0.00 0.00 68 1013.3
20260902225639 73 10 6.0 13.0 0.00 0.00 0.00 69 1013.4
20260902224921 73 289 9.0 14.0 0.00 0.00 0.00 71 1013.4
20260902224421 73 330 9.0 14.0 0.00 0.00 0.00 72 1013.3
20260902223919 73 328 5.0 12.0 0.00 0.00 0.00 70 1013.4
20260902223419 73 321 4.0 12.0 0.00 0.00 0.00 71 1013.5
20260902223139 73 267 4.0 10.0 0.00 0.00 0.00 69 1013.5
20260902222645 73 304 6.0 14.0 0.00 0.00 0.00 69 1013.6
20260902221919 73 336 6.0 14.0 0.00 0.00 0.00 70 1013.6
20260902221418 73 341 6.0 12.0 0.00 0.00 0.00 70 1013.7
20260902220918 73 257 4.0 10.0 0.00 0.00 0.00 71 1013.7
20260902220420 73 352 5.0 13.0 0.00 0.00 0.00 70 1013.8
20260902215919 73 346 7.0 14.0 0.00 0.00 0.00 72 1013.8
20260902214419 73 4 3.0 10.0 0.00 0.00 0.00 70 1013.8
20260902213919 73 263 6.0 9.0 0.00 0.00 0.00 70 1013.7
20260902213418 73 261 2.0 10.0 0.00 0.00 0.00 71 1013.8
20260902212419 73 300 3.0 14.0 0.00 0.00 0.00 71 1013.7
20260902212135 73 341 5.0 15.0 0.00 0.00 0.00 71 1013.8
20260902211418 73 353 8.0 15.0 0.00 0.00 0.00 72 1013.8
20260902210918 73 332 9.0 16.0 0.00 0.00 0.00 72 1013.8
20260902210419 73 298 12.0 16.0 0.00 0.00 0.00 72 1013.9
20260902205918 73 327 8.0 12.0 0.00 0.00 0.00 71 1013.9
20260902205417 73 285 6.0 15.0 0.00 0.00 0.00 72 1014.0
20260902204917 73 0 7.0 15.0 0.00 0.00 0.00 71 1014.0
20260902204419 74 314 9.0 13.0 0.00 0.00 0.00 70 1014.0
20260902203918 74 327 5.0 13.0 0.00 0.00 0.00 72 1013.8
20260902203637 74 332 4.0 13.0 0.00 0.00 0.00 69 1014.0
20260902202917 74 269 4.0 13.0 0.00 0.00 0.00 70 1014.1
20260902202417 73 282 3.0 13.0 0.00 0.00 0.00 68 1014.1
20260902201917 74 274 5.0 12.0 0.00 0.00 0.00 69 1014.1
20260902201417 74 242 4.0 12.0 0.00 0.00 0.00 69 1014.2
20260902200916 74 296 7.0 13.0 0.00 0.00 0.00 71 1014.1
20260902200417 74 351 10.0 15.0 0.00 0.00 0.00 71 1014.2
20260902195916 74 253 3.0 15.0 0.00 0.00 0.00 70 1014.2
20260902195415 74 234 5.0 10.0 0.00 0.00 0.00 70 1014.3
20260902194915 74 275 5.0 10.0 0.00 0.00 0.00 68 1014.3
20260902194417 74 271 3.0 13.0 0.00 0.00 0.00 68 1014.3
20260902193640 74 256 2.0 10.0 0.00 0.00 0.00 69 1014.4
20260902192915 74 11 3.0 9.0 0.00 0.00 0.00 70 1014.4
20260902192416 74 349 7.0 12.0 0.00 0.00 0.00 70 1014.4
20260902191917 73 256 5.0 12.0 0.00 0.00 0.00 71 1014.4
20260902191415 73 347 5.0 10.0 0.00 0.00 0.00 71 1014.5
20260902190915 73 328 7.0 9.0 0.00 0.00 0.00 70 1014.7
20260902190414 73 357 6.0 12.0 0.00 0.00 0.00 71 1014.7
20260902185915 73 335 5.0 12.0 0.00 0.00 0.00 72 1014.7
20260902185414 73 324 8.0 12.0 0.00 0.00 0.00 72 1014.7
20260902184914 73 338 7.0 10.0 0.00 0.00 0.00 72 1014.8
20260902184414 73 301 3.0 14.0 0.00 0.00 0.00 73 1014.9
20260902183915 74 325 7.0 14.0 0.00 0.00 0.00 72 1014.9
20260902183633 74 333 4.0 10.0 0.00 0.00 0.00 73 1014.9
20260902182914 74 322 7.0 13.0 0.00 0.00 0.00 72 1015.0
20260902182413 74 302 4.0 13.0 0.00 0.00 0.00 71 1015.0
20260902181915 74 331 8.0 9.0 0.00 0.00 0.00 71 1015.0
20260902181414 74 342 4.0 9.0 0.00 0.00 0.00 72 1015.0
20260902180913 74 255 6.0 10.0 0.00 0.00 0.00 70 1015.0
20260902180631 74 304 4.0 10.0 0.00 0.00 0.00 71 1014.9
20260902180136 74 323 8.0 9.0 0.00 0.00 0.00 72 1014.9
20260902175414 74 337 4.0 10.0 0.00 0.00 0.00 71 1015.0
20260902174912 74 313 4.0 10.0 0.00 0.00 0.00 71 1014.9
20260902174413 74 326 5.0 9.0 0.00 0.00 0.00 71 1014.9
20260902173914 74 340 5.0 8.0 0.00 0.00 0.00 71 1014.9
20260902173633 74 286 3.0 8.0 0.00 0.00 0.00 70 1014.8
20260902172913 74 270 2.0 8.0 0.00 0.00 0.00 68 1014.9
20260902172413 74 356 5.0 8.0 0.00 0.00 0.00 70 1014.8
20260902171915 74 324 4.0 6.0 0.00 0.00 0.00 70 1014.8
20260902171641 74 269 3.0 6.0 0.00 0.00 0.00 71 1014.8
20260902170912 73 262 4.0 6.0 0.00 0.00 0.00 69 1014.7
20260902170635 73 264 2.0 6.0 0.00 0.00 0.00 69 1014.7
20260902165913 73 263 1.0 5.0 0.00 0.00 0.00 70 1014.7